Weather History for Winchester, VA

Change the Weather History Date:

Wednesday, November 21, 2012

  Actual Average Record
Temperature  
Mean Temperature 40 °F -  
Max Temperature 53 °F 53 °F 76 °F (1991)
Min Temperature 28 °F 35 °F 22 °F (1987)
Degree Days  
Heating Degree Days 24    
Moisture  
Dew Point 33 °F    
Average Humidity 84    
Maximum Humidity 100    
Minimum Humidity 50    
Precipitation  
Precipitation 0.00 in - - ()
Sea Level Pressure  
Sea Level Pressure 30.19 in    
Wind  
Wind Speed 0 mph (North)    
Max Wind Speed 6 mph    
Max Gust Speed -    
Visibility 7 miles    
Events      
Averages and records for this station are not official NWS values.
T = Trace of Precipitation, MM = Missing Value Source: NWS Daily Summary

Daily Weather History Graph

Daily Weather History Graph

Search for Another Location

Airport:

Trip Planner

Search our weather history database for the weather conditions in past years. The results will help you decide how hot, cold, wet, or windy it might be!

Date:

Astronomy

Nov. 21, 2012 Rise Set
Actual Time 7:02 AM EST 4:53 PM EST
Civil Twilight 6:33 AM EST 5:22 PM EST
Nautical Twilight 6:01 AM EST 5:55 PM EST
Astronomical Twilight 5:29 AM EST 6:27 PM EST
Moon 1:07 PM EST 12:22 AM EST
Length of Visible Light 10h 49m
Length of Day
9h 51m
First Quarter, 61% of the Moon is Illuminated
Nov 21
First Quarter
Nov 28
Full
Dec 6
Last Quarter
Dec 13
New
Dec 20
First Quarter

Hourly Weather History & Observations

Time (EST) Temp. Windchill Dew Point Humidity Pressure Visibility Wind Dir Wind Speed Gust Speed Precip Events Conditions
12:15 AM 33.8 °F - 33.8 °F 100% 30.14 in 5.0 mi Calm Calm - N/A   Clear
12:35 AM 33.8 °F - 33.8 °F 100% 30.13 in 5.0 mi Calm Calm - N/A   Clear
12:55 AM 32.0 °F - 32.0 °F 100% 30.13 in 4.0 mi Calm Calm - N/A   Clear
1:15 AM 32.0 °F - 32.0 °F 100% 30.13 in 4.0 mi Calm Calm - N/A   Scattered Clouds
1:35 AM 32.0 °F - 32.0 °F 100% 30.13 in 1.8 mi Calm Calm - N/A   Mist
1:55 AM 32.0 °F - 32.0 °F 100% 30.13 in 5.0 mi Calm Calm - N/A   Clear
2:15 AM 32.0 °F - 32.0 °F 100% 30.14 in 3.0 mi Calm Calm - N/A   Clear
2:35 AM 32.0 °F - 32.0 °F 100% 30.15 in 3.0 mi Calm Calm - N/A   Clear
2:55 AM 32.0 °F - 32.0 °F 100% 30.15 in 4.0 mi Calm Calm - N/A   Clear
3:15 AM 32.0 °F - 32.0 °F 100% 30.15 in 5.0 mi Calm Calm - N/A   Clear
3:35 AM 32.0 °F - 32.0 °F 100% 30.14 in 4.0 mi Calm Calm - N/A   Clear
3:55 AM 32.0 °F - 32.0 °F 100% 30.14 in 3.0 mi Calm Calm - N/A   Scattered Clouds
4:15 AM 30.2 °F - 30.2 °F 100% 30.15 in 2.0 mi Calm Calm - N/A   Clear
4:35 AM 30.2 °F - 30.2 °F 100% 30.15 in 3.0 mi Calm Calm - N/A   Clear
4:55 AM 32.0 °F - 32.0 °F 100% 30.15 in 4.0 mi Calm Calm - N/A   Clear
5:15 AM 30.2 °F - 30.2 °F 100% 30.15 in 5.0 mi Calm Calm - N/A   Clear
5:35 AM 28.4 °F - 28.4 °F 100% 30.16 in 4.0 mi Calm Calm - N/A   Clear
5:55 AM 30.2 °F - 30.2 °F 100% 30.16 in 4.0 mi Calm Calm - N/A   Clear
6:15 AM 28.4 °F - 28.4 °F 100% 30.17 in 5.0 mi Calm Calm - N/A   Clear
6:35 AM 28.4 °F - 28.4 °F 100% 30.18 in 5.0 mi Calm Calm - N/A   Scattered Clouds
6:55 AM 28.4 °F - 28.4 °F 100% 30.18 in 4.0 mi Calm Calm - N/A   Clear
7:15 AM 30.2 °F - 30.2 °F 100% 30.19 in 2.5 mi Calm Calm - N/A   Clear
7:35 AM 28.4 °F - 28.4 °F 100% 30.20 in 2.0 mi Calm Calm - N/A   Clear
7:55 AM 30.2 °F - 30.2 °F 100% 30.21 in 2.5 mi Calm Calm - N/A   Clear
8:15 AM 32.0 °F - 32.0 °F 100% 30.21 in 4.0 mi Calm Calm - N/A   Clear
8:35 AM 33.8 °F - 33.8 °F 100% 30.21 in 4.0 mi Calm Calm - N/A   Scattered Clouds
8:55 AM 35.6 °F - 35.6 °F 100% 30.22 in 5.0 mi Calm Calm - N/A   Clear
9:15 AM 37.4 °F - 37.4 °F 100% 30.22 in 5.0 mi Calm Calm - N/A   Clear
9:35 AM 39.2 °F - 37.4 °F 93% 30.22 in 7.0 mi Calm Calm - N/A   Clear
9:55 AM 41.0 °F - 37.4 °F 87% 30.23 in 7.0 mi Calm Calm - N/A   Clear
10:15 AM 42.8 °F - 37.4 °F 81% 30.23 in 7.0 mi Calm Calm - N/A   Clear
10:35 AM 42.8 °F - 39.2 °F 87% 30.23 in 7.0 mi Calm Calm - N/A   Scattered Clouds
10:55 AM 44.6 °F - 39.2 °F 81% 30.22 in 7.0 mi Calm Calm - N/A   Clear
11:15 AM 46.4 °F - 39.2 °F 76% 30.22 in 10.0 mi Calm Calm - N/A   Clear
11:35 AM 46.4 °F - 39.2 °F 76% 30.21 in 7.0 mi Calm Calm - N/A   Clear
11:55 AM 48.2 °F - 37.4 °F 66% 30.20 in 10.0 mi NNW 3.5 mph - N/A   Clear
12:15 PM 50.0 °F - 37.4 °F 62% 30.20 in 10.0 mi Calm Calm - N/A   Clear
12:35 PM 50.0 °F - 37.4 °F 62% 30.20 in 10.0 mi Calm Calm - N/A   Scattered Clouds
12:55 PM 51.8 °F - 37.4 °F 58% 30.19 in 10.0 mi NE 3.5 mph - N/A   Scattered Clouds
1:15 PM 51.8 °F - 35.6 °F 54% 30.18 in 10.0 mi Calm Calm - N/A   Clear
1:35 PM 51.8 °F - 35.6 °F 54% 30.18 in 10.0 mi Calm Calm - N/A   Clear
1:55 PM 51.8 °F - 33.8 °F 50% 30.18 in 10.0 mi NW 5.8 mph - N/A   Clear
2:15 PM 51.8 °F - 33.8 °F 50% 30.17 in 10.0 mi North 3.5 mph - N/A   Clear
2:35 PM 53.6 °F - 35.6 °F 51% 30.17 in 10.0 mi North 3.5 mph - N/A   Clear
2:55 PM 53.6 °F - 35.6 °F 51% 30.17 in 10.0 mi Calm Calm - N/A   Clear
3:15 PM 53.6 °F - 35.6 °F 51% 30.17 in 10.0 mi Calm Calm - N/A   Clear
3:35 PM 51.8 °F - 35.6 °F 54% 30.18 in 10.0 mi NE 3.5 mph - N/A   Clear
3:55 PM 51.8 °F - 35.6 °F 54% 30.18 in 10.0 mi Calm Calm - N/A   Clear
4:15 PM 51.8 °F - 33.8 °F 50% 30.18 in 10.0 mi Calm Calm - N/A   Scattered Clouds
4:35 PM 50.0 °F - 32.0 °F 50% 30.17 in 10.0 mi East 3.5 mph - N/A   Scattered Clouds
4:55 PM 46.4 °F - 33.8 °F 62% 30.18 in 10.0 mi Calm Calm - N/A   Clear
5:15 PM 44.6 °F - 33.8 °F 66% 30.19 in 10.0 mi Calm Calm - N/A   Scattered Clouds
5:35 PM 42.8 °F - 33.8 °F 70% 30.20 in 10.0 mi Calm Calm - N/A   Scattered Clouds
5:55 PM 41.0 °F - 32.0 °F 70% 30.20 in 10.0 mi Calm Calm - N/A   Scattered Clouds
6:15 PM 42.8 °F - 32.0 °F 66% 30.20 in 10.0 mi Calm Calm - N/A   Clear
6:35 PM 37.4 °F - 32.0 °F 81% 30.21 in 10.0 mi Calm Calm - N/A   Scattered Clouds
6:55 PM 41.0 °F - 32.0 °F 70% 30.21 in 10.0 mi Calm Calm - N/A   Scattered Clouds
7:15 PM 37.4 °F - 32.0 °F 81% 30.21 in 10.0 mi Calm Calm - N/A   Clear
7:35 PM 37.4 °F - 32.0 °F 81% 30.22 in 10.0 mi Calm Calm - N/A   Scattered Clouds
7:55 PM 37.4 °F - 32.0 °F 81% 30.22 in 10.0 mi Calm Calm - N/A   Clear
8:15 PM 37.4 °F - 32.0 °F 81% 30.22 in 10.0 mi Calm Calm - N/A   Clear
8:35 PM 37.4 °F - 32.0 °F 81% 30.22 in 10.0 mi Calm Calm - N/A   Clear
8:55 PM 35.6 °F 32.8 °F 32.0 °F 87% 30.22 in 10.0 mi NW 3.5 mph - N/A   Scattered Clouds
9:15 PM 33.8 °F - 32.0 °F 93% 30.22 in 10.0 mi Calm Calm - N/A   Clear
9:35 PM 33.8 °F 30.8 °F 32.0 °F 93% 30.22 in 10.0 mi WNW 3.5 mph - N/A   Clear
9:55 PM 35.6 °F - 32.0 °F 87% 30.22 in 10.0 mi Calm Calm - N/A   Clear
10:15 PM 33.8 °F - 32.0 °F 93% 30.22 in 10.0 mi Calm Calm - N/A   Clear
10:35 PM 32.0 °F - 32.0 °F 100% 30.22 in 10.0 mi Calm Calm - N/A   Clear
10:55 PM 33.8 °F - 32.0 °F 93% 30.22 in 10.0 mi Calm Calm - N/A   Clear
11:15 PM 33.8 °F - 32.0 °F 93% 30.22 in 10.0 mi Calm Calm - N/A   Clear
11:35 PM 32.0 °F 27.5 °F 30.2 °F 93% 30.22 in 10.0 mi NW 4.6 mph - N/A   Clear
11:55 PM 32.0 °F - 30.2 °F 93% 30.22 in 10.0 mi Calm Calm - N/A   Clear